[[{"header":{"parameterUnit":"m.s-1","parameterCategory":1,"la1":30.2991,"la2":30.254,"lo1":-89.0895,"lo2":-89.0444,"dy":0.0017,"dx":0.0017,"nx":28,"ny":28,"refTime":"2024-03-28T21:00:00:Z","depth":0,"parameterNumber":2,"parameterNumberName":"U-component_of_WINDS"},"data":[0,0,0,0,0,0,0,0,0,0,0,0,0,0,0,0,0,0,0,0,0,0,0,0,0,0,0,0,0,0,0,0,0,0,0,0,0,0,0,0,0,0,0,0,0,0,0,0,0,0,0,0,0,0,0,0,0,0,0.5417,0.5417,0,0.5441,0.5441,0.5442,0.5445,0.5445,0.5445,0.5444,0.547,0.5471,0.5472,0,0,0,0,0,0,0,0,0,0,0,0,0,0.5376,0.5377,0.5417,0.5417,0.5418,0.5441,0.5441,0.5442,0.5445,0.5445,0.5444,0.5444,0.547,0.5471,0.5472,0,0,0,0,0,0,0,0,0,0,0,0,0,0.5397,0.5377,0.5417,0.5422,0.5423,0.5441,0.5442,0.5442,0.5445,0.5445,0.5444,0.5444,0.5469,0.5471,0.5472,0.5487,0,0,0.5476,0.5477,0,0,0,0,0,0,0,0,0.5396,0.5398,0.5421,0.5422,0.5423,0.544,0.5437,0.5457,0.5445,0.5437,0.5444,0.5444,0.546,0.5462,0.5468,0.5488,0.5489,0.5476,0.5477,0.5478,0.5478,0,0,0,0,0,0,0,0.5394,0.5397,0.5427,0.5421,0.5422,0.5424,0.5427,0.544,0.545,0.5437,0.5438,0.544,0.5461,0.5466,0.5468,0.549,0.5476,0.5477,0.5478,0.5479,0.5526,0.5527,0,0,0,0,0,0,0.5392,0.5396,0.5426,0.5427,0.5408,0.5425,0.5428,0.5435,0.545,0.5452,0.5441,0.544,0.5464,0.5467,0.5469,0.5489,0.5477,0.5479,0.548,0.5526,0.5526,0.5527,0,0,0,0,0,0,0.5391,0.5394,0.5425,0.5412,0.5416,0.5426,0.5434,0.5435,0.5441,0.5452,0.5454,0.5445,0.5464,0.5467,0.5483,0.549,0.5479,0.5481,0.5525,0.5526,0.5527,0.5528,0,0,0,0,0,0,0.5389,0.5394,0.5399,0.5412,0.5417,0.5438,0.5434,0.5436,0.5443,0.5443,0.5457,0.5459,0.5464,0.5481,0.5484,0.5492,0.5482,0.5525,0.5526,0.5526,0.5528,0.5529,0.553,0,0,0,0,0,0.5388,0.5398,0.5399,0.5403,0.5423,0.5438,0.5441,0.5446,0.5444,0.5449,0.5457,0.5458,0.5489,0.5483,0.5486,0.5494,0.5524,0.5525,0.5526,0.5527,0.5529,0.553,0,0,0,0,0,0,0.5386,0.54,0.5401,0.5416,0.5426,0.5438,0.5446,0.5448,0.5459,0.5458,0.5465,0.5469,0.5484,0.5491,0.5484,0.5511,0.5506,0.5508,0.5506,0.5507,0.5509,0.5507,0.5483,0,0,0,0,0,0.5387,0.5397,0.5409,0.5421,0.5426,0.5435,0.5442,0.5446,0.5456,0.5461,0.5469,0.548,0.5493,0.55,0.5512,0.5529,0.5533,0.5536,0.5538,0.5539,0.554,0.5551,0.5553,0.553,0.553,0.553,0,0,0.539,0.5399,0.5405,0.5421,0.5429,0.5441,0.5439,0.545,0.5459,0.5462,0.5478,0.5485,0.5498,0.5515,0.5522,0.5521,0.5548,0.554,0.5541,0.5542,0.5553,0.5555,0.5557,0.5531,0.5531,0.5531,0,0,0.54,0.5408,0.5419,0.5428,0.544,0.5446,0.5449,0.5462,0.5467,0.5483,0.5486,0.5497,0.5517,0.5527,0.5534,0.5551,0.5553,0.5555,0.5561,0.5572,0.5573,0.5575,0.5582,0.5584,0.5556,0.5556,0.5556,0,0.5402,0.5419,0.5425,0.5437,0.5445,0.5448,0.5461,0.5469,0.5485,0.549,0.5488,0.5515,0.5524,0.5544,0.5548,0.5553,0.5558,0.5553,0.5573,0.5574,0.5576,0.5583,0.5585,0.5556,0.5556,0.5556,0.5556,0,0.5421,0.5433,0.5441,0.5456,0.5465,0.5477,0.5486,0.5494,0.5498,0.5504,0.5522,0.5532,0.5547,0.5552,0.5555,0.5573,0.5572,0.5571,0.5567,0.5578,0.5585,0.5587,0.5557,0.5556,0.5556,0.5556,0,0,0.543,0.5449,0.5452,0.546,0.5475,0.5485,0.5498,0.5512,0.552,0.5531,0.5543,0.5561,0.5561,0.557,0.5575,0.5584,0.5598,0.5582,0.5583,0.5586,0.562,0.5621,0.5623,0.5599,0.56,0.56,0.5619,0,0.5443,0.5465,0.5472,0.5492,0.5504,0.5508,0.552,0.5531,0.5538,0.555,0.5559,0.5572,0.557,0.5575,0.5585,0.5594,0.5605,0.5593,0.5612,0.5612,0.5609,0.5627,0.5627,0.5644,0.5622,0.5622,0.5622,0,0.546,0.5472,0.5493,0.5508,0.5513,0.5523,0.5538,0.5549,0.5563,0.5568,0.5578,0.5582,0.5598,0.5593,0.5615,0.5607,0.5615,0.5621,0.5622,0.5624,0.5618,0.563,0.565,0.5653,0.5626,0.5626,0.5626,0,0.5466,0.5487,0.5503,0.5509,0.5527,0.5534,0.5542,0.5555,0.5564,0.5577,0.5583,0.5598,0.5607,0.5619,0.5628,0.5623,0.5649,0.5645,0.5655,0.5655,0.566,0.5659,0.5682,0.5665,0.5664,0.5664,0.5664,0,0.5479,0.5492,0.5505,0.5515,0.553,0.5538,0.5553,0.5562,0.5574,0.5586,0.5591,0.5603,0.5614,0.5627,0.5634,0.5652,0.5656,0.5661,0.5663,0.5661,0.566,0.5666,0.5665,0.5665,0.5665,0.5665,0.5665,0,0.5487,0.5497,0.5514,0.553,0.5534,0.5545,0.5559,0.5569,0.5577,0.5593,0.5597,0.561,0.5627,0.5637,0.5657,0.5662,0.5682,0.5684,0.5678,0.5679,0.5688,0.5688,0.5716,0.572,0.5699,0.57,0.57,0,0.5496,0.5506,0.5523,0.5531,0.5539,0.5553,0.5562,0.5572,0.5581,0.5599,0.5607,0.5624,0.5638,0.5664,0.5676,0.5692,0.5694,0.5703,0.5697,0.5695,0.5695,0.5695,0.5697,0.5704,0.5704,0.5704,0.5704,0,0.551,0.5514,0.5527,0.5542,0.5554,0.5566,0.5579,0.5586,0.5597,0.5608,0.5625,0.5636,0.5658,0.5675,0.5693,0.5702,0.5706,0.5706,0.571,0.5708,0.5705,0.5708,0.5681,0.5706,0.5705,0.5705,0.5705,0.5705,0.5518,0.5528,0.5542,0.5557,0.5568,0.558,0.5591,0.5601,0.5615,0.5633,0.5638,0.5656,0.5672,0.5696,0.5706,0.5721,0.572,0.5724,0.5725,0.5726,0.5727,0.5702,0.5724,0.5724,0.5724,0.5724,0.5724,0,0.5533,0.5543,0.5557,0.5575,0.5587,0.5589,0.5604,0.5614,0.563,0.5644,0.5658,0.5678,0.5695,0.5709,0.5727,0.5736,0.5739,0.5741,0.5741,0.5743,0.5727,0.5722,0.5739,0.5739,0.5739,0.5739,0.5739,0.5739,0.5543,0.556,0.5566,0.559,0.5599,0.5617,0.5625,0.5637,0.5648,0.5671,0.5685,0.5694,0.5708,0.5728,0.5744,0.5748,0.5755,0.5757,0.5761,0.5746,0.5744,0.5742,0.5738,0.5758,0.5758,0.5776,0.5777,0.5777]},{"header":{"parameterUnit":"m.s-1","parameterCategory":1,"la1":30.2991,"la2":30.254,"lo1":-89.0895,"lo2":-89.0444,"dy":0.0017,"dx":0.0017,"nx":28,"ny":28,"refTime":"2024-03-28T21:00:00:Z","depth":0,"parameterNumber":3,"parameterNumberName":"V-component_of_WINDS"},"data":[0,0,0,0,0,0,0,0,0,0,0,0,0,0,0,0,0,0,0,0,0,0,0,0,0,0,0,0,0,0,0,0,0,0,0,0,0,0,0,0,0,0,0,0,0,0,0,0,0,0,0,0,0,0,0,0,0,0,-2.9926,-2.9927,0,-2.9998,-2.9999,-3.0,-3.0015,-3.0015,-3.0014,-3.0014,-3.0085,-3.0087,-3.009,0,0,0,0,0,0,0,0,0,0,0,0,0,-2.9798,-2.98,-2.9926,-2.9927,-2.9927,-2.9998,-2.9999,-3.0,-3.0016,-3.0015,-3.0014,-3.0014,-3.0084,-3.0087,-3.009,0,0,0,0,0,0,0,0,0,0,0,0,0,-2.986,-2.9801,-2.9925,-2.9944,-2.9946,-2.9998,-2.9999,-3.0,-3.0016,-3.0015,-3.0014,-3.0013,-3.0083,-3.0087,-3.009,-3.0128,0,0,-3.0101,-3.0103,0,0,0,0,0,0,0,0,-2.9857,-2.9865,-2.994,-2.9943,-2.9945,-2.9997,-2.998,-3.0043,-3.0016,-2.9989,-3.0014,-3.0013,-3.0056,-3.0062,-3.0077,-3.0132,-3.0135,-3.0102,-3.0104,-3.0105,-3.0106,0,0,0,0,0,0,0,-2.9852,-2.9862,-2.9954,-2.9941,-2.9944,-2.9948,-2.9956,-2.9992,-3.0026,-2.9991,-2.9993,-3.0001,-3.0058,-3.0074,-3.0079,-3.0136,-3.0102,-3.0105,-3.0107,-3.0108,-3.0225,-3.0226,0,0,0,0,0,0,-2.9845,-2.9858,-2.9952,-2.9956,-2.9898,-2.9951,-2.9959,-2.9981,-3.0026,-3.0032,-3.0002,-3.0002,-3.0068,-3.0075,-3.0082,-3.0129,-3.0105,-3.0109,-3.0111,-3.0224,-3.0225,-3.0226,0,0,0,0,0,0,-2.9842,-2.9853,-2.9949,-2.9908,-2.992,-2.9954,-2.9978,-2.9983,-2.9999,-3.0034,-3.004,-3.0013,-3.0068,-3.0077,-3.0117,-3.0132,-3.011,-3.0114,-3.0223,-3.0224,-3.0225,-3.0223,0,0,0,0,0,0,-2.9839,-2.9852,-2.9868,-2.9908,-2.9922,-2.9984,-2.9979,-2.9985,-3.0006,-3.0006,-3.0045,-3.0051,-3.0068,-3.0111,-3.012,-3.0136,-3.0116,-3.0221,-3.0223,-3.0225,-3.0222,-3.0225,-3.0227,0,0,0,0,0,-2.9834,-2.9863,-2.9868,-2.9879,-2.9942,-2.9985,-2.9993,-3.0012,-3.0007,-3.0022,-3.0044,-3.005,-3.0129,-3.0115,-3.0126,-3.0143,-3.0221,-3.0223,-3.0225,-3.0221,-3.0224,-3.0227,0,0,0,0,0,0,-2.9822,-2.9869,-2.9875,-2.9918,-2.9948,-2.9987,-3.0007,-3.0015,-3.0045,-3.0044,-3.0067,-3.0075,-3.0114,-3.0132,-3.0117,-3.0182,-3.0174,-3.0179,-3.0168,-3.0171,-3.0173,-3.0168,-3.0119,0,0,0,0,0,-2.9825,-2.9856,-2.9895,-2.993,-2.9944,-2.9973,-2.9992,-3.0005,-3.0036,-3.0048,-3.0073,-3.0102,-3.0133,-3.0153,-3.0184,-3.0225,-3.0234,-3.0242,-3.0244,-3.0246,-3.0249,-3.0272,-3.0276,-3.0233,-3.0233,-3.0233,0,0,-2.983,-2.986,-2.9878,-2.9928,-2.9952,-2.9983,-2.9983,-3.0016,-3.0039,-3.0052,-3.0092,-3.0112,-3.0145,-3.0186,-3.0206,-3.0203,-3.0263,-3.0249,-3.025,-3.0252,-3.0275,-3.0279,-3.0283,-3.0234,-3.0234,-3.0234,0,0,-2.9856,-2.9882,-2.9914,-2.9938,-2.9975,-2.9994,-3.0002,-3.0041,-3.0055,-3.0095,-3.0106,-3.0134,-3.0187,-3.0211,-3.023,-3.0266,-3.0271,-3.0275,-3.0286,-3.0308,-3.0312,-3.0315,-3.0327,-3.0332,-3.0278,-3.0278,-3.0278,0,-2.9858,-2.9906,-2.9928,-2.9962,-2.9983,-2.9998,-3.003,-3.0052,-3.0097,-3.0111,-3.0108,-3.0176,-3.0199,-3.0246,-3.0255,-3.027,-3.0279,-3.027,-3.031,-3.0313,-3.0316,-3.0328,-3.0333,-3.0278,-3.0278,-3.0278,-3.0278,0,-2.9906,-2.994,-2.9961,-3.0005,-3.0029,-3.0061,-3.0088,-3.0109,-3.012,-3.014,-3.0181,-3.021,-3.0247,-3.0259,-3.027,-3.0308,-3.0305,-3.0305,-3.0298,-3.032,-3.0332,-3.0337,-3.0279,-3.0279,-3.0278,-3.0278,0,0,-2.9926,-2.9983,-2.999,-3.0011,-3.0053,-3.0079,-3.0112,-3.015,-3.0167,-3.0198,-3.0226,-3.0271,-3.0272,-3.0294,-3.0307,-3.0327,-3.0353,-3.0325,-3.0326,-3.0329,-3.0397,-3.0396,-3.0401,-3.0358,-3.0359,-3.036,-3.0394,0,-2.9956,-3.0017,-3.0038,-3.0087,-3.0118,-3.0133,-3.0162,-3.0191,-3.021,-3.0238,-3.0259,-3.0291,-3.029,-3.0303,-3.0324,-3.0346,-3.0367,-3.0344,-3.0383,-3.0384,-3.0374,-3.0407,-3.0406,-3.0437,-3.0399,-3.04,-3.04,0,-3.0,-3.0033,-3.0085,-3.0125,-3.0139,-3.0164,-3.02,-3.0228,-3.0261,-3.0273,-3.0298,-3.031,-3.0344,-3.0336,-3.0383,-3.0367,-3.0384,-3.0398,-3.0399,-3.0403,-3.0393,-3.0412,-3.0448,-3.0452,-3.0408,-3.0407,-3.0407,0,-3.0008,-3.0065,-3.0105,-3.0122,-3.0169,-3.0186,-3.0206,-3.0239,-3.026,-3.0291,-3.0305,-3.034,-3.0359,-3.0385,-3.0406,-3.0398,-3.0452,-3.0445,-3.0462,-3.0462,-3.0472,-3.0471,-3.0511,-3.0484,-3.0484,-3.0484,-3.0484,0,-3.004,-3.0072,-3.0109,-3.0133,-3.0169,-3.0193,-3.0227,-3.0248,-3.0277,-3.0305,-3.032,-3.0345,-3.0372,-3.0401,-3.0418,-3.0454,-3.0462,-3.0473,-3.0477,-3.0471,-3.047,-3.0483,-3.0481,-3.0485,-3.0485,-3.0485,-3.0485,0,-3.0055,-3.0082,-3.0125,-3.0167,-3.0178,-3.0202,-3.0237,-3.0261,-3.0281,-3.0316,-3.0326,-3.0357,-3.0392,-3.0416,-3.046,-3.0472,-3.0511,-3.0515,-3.05,-3.0502,-3.0518,-3.0516,-3.0567,-3.0574,-3.0543,-3.0543,-3.0543,0,-3.0073,-3.0098,-3.0143,-3.0163,-3.0184,-3.0216,-3.0238,-3.0263,-3.0286,-3.0326,-3.0344,-3.038,-3.041,-3.0465,-3.0491,-3.0525,-3.053,-3.0545,-3.0535,-3.0529,-3.053,-3.0528,-3.053,-3.0547,-3.0547,-3.0547,-3.0547,0,-3.0103,-3.0115,-3.0147,-3.0184,-3.0211,-3.0241,-3.0271,-3.0286,-3.0316,-3.0341,-3.0377,-3.0401,-3.0447,-3.0482,-3.0519,-3.0539,-3.0548,-3.0551,-3.0556,-3.0551,-3.0541,-3.0546,-3.0504,-3.0549,-3.0549,-3.0549,-3.0549,-3.0549,-3.0119,-3.0142,-3.0178,-3.0213,-3.0239,-3.0267,-3.0291,-3.0315,-3.0347,-3.0387,-3.0399,-3.0437,-3.047,-3.052,-3.0541,-3.057,-3.0569,-3.0577,-3.0579,-3.0581,-3.0581,-3.0537,-3.0577,-3.0577,-3.0577,-3.0577,-3.0577,0,-3.0149,-3.0173,-3.0206,-3.0248,-3.0276,-3.0284,-3.0318,-3.034,-3.0374,-3.0404,-3.0434,-3.0476,-3.0511,-3.054,-3.0576,-3.0594,-3.0599,-3.0602,-3.0601,-3.0605,-3.058,-3.0571,-3.0598,-3.0598,-3.0598,-3.0598,-3.0598,-3.0598,-3.0168,-3.0207,-3.0224,-3.0276,-3.03,-3.0338,-3.0356,-3.0382,-3.0407,-3.0453,-3.0483,-3.0502,-3.0532,-3.0571,-3.0603,-3.061,-3.0623,-3.0625,-3.0634,-3.0609,-3.0607,-3.0605,-3.0597,-3.0628,-3.0628,-3.0656,-3.0657,-3.0657]}]]